User: anonymous   Login
Location: Black Creek
(40.9000°S, 175.5500°E)
Time: 01:57:23
(UTC+00:00)
Language:

Cosmos 220 Rocket - Orbit

View from above orbital plane
View from above orbital plane
View from above satellite
View from above satellite

Ground track
Ground track

The orbit data is extracted from the following two-line orbital elements,

1  3230U 68040B   24287.41087334  .00007867  00000-0  66529-3 0  9998
2  3230  74.0319 276.6119 0027883 238.3512 121.4953 14.97897972 34395
Epoch (UTC): 13 October 2024 09:51:39
Eccentricity: 0.0027883
inclination: 74.0319°
perigee height: 554 km
apogee height: 593 km
right ascension of ascending node: 276.6119°
argument of perigee: 238.3512°
revolutions per day: 14.97897972
mean anomaly at epoch: 121.4953°
orbit number at epoch: 3439

The dashed part of the orbit path shows where the satellite is in the earth's shadow,  

DLR